Weather History for Reno, NV

Change the Weather History Date:

Thursday, February 28, 2013

  Actual Average Record
Temperature  
Mean Temperature 47 °F 43 °F  
Max Temperature 64 °F 55 °F 76 °F (1888)
Min Temperature 30 °F 31 °F -7 °F (1955)
Degree Days  
Heating Degree Days 18 22  
Month to date heating degree days 737 701  
Since 1 July heating degree days 3484 3638  
Cooling Degree Days 0 0  
Month to date cooling degree days 0 0  
Year to date cooling degree days 0 0  
Moisture  
Dew Point 24 °F    
Average Humidity 43    
Maximum Humidity 58    
Minimum Humidity 27    
Precipitation  
Precipitation 0.00 in 0.04 in 0.43 in (1940)
Month to date precipitation T 1.02  
Year to date precipitation 0.12 2.05  
Snow  
Snow 0.00 in 0.20 in 2.40 in (1958)
Month to date snowfall T 5.0  
Since 1 July snowfall 9.3 19.0  
Snow Depth 0.00 in    
Sea Level Pressure  
Sea Level Pressure 30.39 in    
Wind  
Wind Speed 2 mph (NNW)    
Max Wind Speed 17 mph    
Max Gust Speed 20 mph    
Visibility 10 miles    
Events      
T = Trace of Precipitation, MM = Missing Value Source: NWS Daily Summary

Daily Weather History Graph

Daily Weather History Graph

Search for Another Location

Airport:

Trip Planner

Search our weather history database for the weather conditions in past years. The results will help you decide how hot, cold, wet, or windy it might be!

Date:

Astronomy

Feb. 28, 2013 Rise Set
Actual Time 6:32 AM PST 5:50 PM PST
Civil Twilight 6:05 AM PST 6:17 PM PST
Nautical Twilight 5:34 AM PST 6:48 PM PST
Astronomical Twilight 5:03 AM PST 7:20 PM PST
Moon 9:22 PM PST 7:46 AM PST
Length of Visible Light 12h 11m
Length of Day
11h 17m
Waning Gibbous, 90% of the Moon is Illuminated
Feb 28
Waning Gibbous
Mar 4
Last Quarter
Mar 11
New
Mar 19
First Quarter
Mar 27
Full

Hourly Weather History & Observations

Time (PST) Temp. Dew Point Humidity Pressure Visibility Wind Dir Wind Speed Gust Speed Precip Events Conditions
12:55 AM 37.9 °F 14.0 °F 38% 30.35 in 10.0 mi Calm Calm - N/A   Scattered Clouds
1:55 AM 36.0 °F 15.1 °F 43% 30.34 in 10.0 mi Calm Calm - N/A   Scattered Clouds
2:55 AM 34.0 °F 15.1 °F 46% 30.32 in 10.0 mi Calm Calm - N/A   Clear
3:55 AM 33.1 °F 17.1 °F 52% 30.32 in 10.0 mi Calm Calm - N/A   Clear
4:55 AM 30.9 °F 16.0 °F 54% 30.36 in 10.0 mi Calm Calm - N/A   Scattered Clouds
5:55 AM 30.9 °F 17.1 °F 57% 30.39 in 10.0 mi Calm Calm - N/A   Mostly Cloudy
6:55 AM 33.1 °F 18.0 °F 54% 30.41 in 10.0 mi Calm Calm - N/A   Mostly Cloudy
7:55 AM 36.0 °F 19.0 °F 50% 30.43 in 10.0 mi Calm Calm - N/A   Mostly Cloudy
8:55 AM 41.0 °F 19.0 °F 41% 30.43 in 10.0 mi Calm Calm - N/A   Mostly Cloudy
9:55 AM 46.9 °F 19.0 °F 33% 30.43 in 10.0 mi Calm Calm - N/A   Mostly Cloudy
10:55 AM 53.1 °F 21.0 °F 29% 30.40 in 10.0 mi Calm Calm - N/A   Scattered Clouds
11:55 AM 55.9 °F 24.1 °F 29% 30.40 in 10.0 mi Variable 3.5 mph - N/A   Scattered Clouds
12:55 PM 59.0 °F 26.1 °F 28% 30.36 in 10.0 mi Calm Calm - N/A   Scattered Clouds
1:55 PM 61.0 °F 28.0 °F 29% 30.35 in 10.0 mi Variable 4.6 mph - N/A   Scattered Clouds
2:55 PM 63.0 °F 28.9 °F 28% 30.35 in 10.0 mi WSW 3.5 mph - N/A   Scattered Clouds
3:55 PM 62.1 °F 28.9 °F 29% 30.34 in 10.0 mi Calm Calm - N/A   Mostly Cloudy
4:55 PM 60.1 °F 30.0 °F 32% 30.37 in 10.0 mi North 16.1 mph - N/A   Mostly Cloudy
5:55 PM 55.9 °F 30.0 °F 37% 30.39 in 10.0 mi North 6.9 mph - N/A   Mostly Cloudy
6:55 PM 54.0 °F 30.0 °F 40% 30.42 in 10.0 mi NNE 4.6 mph - N/A   Mostly Cloudy
7:55 PM 52.0 °F 30.0 °F 43% 30.44 in 10.0 mi NNW 8.1 mph - N/A   Mostly Cloudy
8:55 PM 48.9 °F 30.0 °F 48% 30.45 in 10.0 mi Calm Calm - N/A   Scattered Clouds
9:55 PM 44.1 °F 28.9 °F 55% 30.46 in 10.0 mi Calm Calm - N/A   Scattered Clouds
10:55 PM 45.0 °F 30.9 °F 58% 30.46 in 10.0 mi Calm Calm - N/A   Partly Cloudy
11:55 PM 43.0 °F 30.0 °F 60% 30.45 in 10.0 mi Calm Calm - N/A   Partly Cloudy